Brady, TX

4:41 PM CST on November 15, 2019 (GMT -0600)
Curtis

Weather History for KBBD - October, 2019

Change the Weather History Date:

Wednesday, October 23, 2019

  Actual Average (KJCT) Record (KJCT)
Temperature  
Mean Temperature 68 °F -  
Max Temperature 82 °F 75 °F 89 °F (2001)
Min Temperature 53 °F 50 °F 28 °F (1996)
Cooling Degree Days 2    
Growing Degree Days 18 (Base 50)    
Moisture  
Dew Point 48 °F    
Average Humidity 51    
Maximum Humidity 77    
Minimum Humidity 37    
Precipitation  
Precipitation 0.00 in - - ()
Sea Level Pressure  
Sea Level Pressure 30.00 in    
Wind  
Wind Speed 12 mph (South)    
Max Wind Speed 28 mph    
Max Gust Speed 34 mph    
Visibility 10 miles    
Events      
Averages and records for this station are not official NWS values.
T = Trace of Precipitation, MM = Missing Value Source: NWS Daily Summary

Daily Weather History Graph

Daily Weather History Graph

Search for Another Location

Airport or City:

Astronomy

Oct. 23, 2019 Rise Set
Actual Time 7:45 AM CDT 6:57 PM CDT
Civil Twilight 7:21 AM CDT 7:21 PM CDT
Nautical Twilight 6:52 AM CDT 7:50 PM CDT
Astronomical Twilight 6:24 AM CDT 8:18 PM CDT
Moon 2:34 AM CDT (10/23) 4:23 PM CDT (10/23)
Length of Visible Light 12h 00m
Length of Day
11h 11m
Waning Crescent, 26% of the Moon is Illuminated
Oct 23
Waning Crescent
Oct 27
New
Nov 4
First Quarter
Nov 12
Full
Nov 19
Last Quarter

Hourly Weather History & Observations

Time (CDT) Temp. Heat Index Dew Point Humidity Pressure Visibility Wind Dir Wind Speed Gust Speed Precip Events Conditions
12:15 AM 57.2 °F - 33.8 °F 41% 30.08 in 10.0 mi SSE 6.9 mph - N/A   Scattered Clouds
12:35 AM 57.2 °F - 33.8 °F 41% 30.08 in 10.0 mi SSE 6.9 mph - N/A   Partly Cloudy
12:55 AM 57.2 °F - 33.8 °F 41% 30.08 in 10.0 mi SSE 11.5 mph - N/A   Clear
1:15 AM 55.4 °F - 35.6 °F 47% 30.08 in 10.0 mi SSE 11.5 mph - N/A   Clear
1:35 AM 55.4 °F - 33.8 °F 44% 30.08 in 10.0 mi SSE 12.7 mph - N/A   Clear
1:55 AM 55.4 °F - 33.8 °F 44% 30.08 in 10.0 mi South 9.2 mph - N/A   Clear
2:15 AM 55.4 °F - 33.8 °F 44% 30.08 in 10.0 mi South 9.2 mph 15.0 mph N/A   Partly Cloudy
2:35 AM 55.4 °F - 33.8 °F 44% 30.08 in 10.0 mi South 9.2 mph 15.0 mph N/A   Scattered Clouds
2:55 AM 55.4 °F - 35.6 °F 47% 30.07 in 10.0 mi South 5.8 mph 11.5 mph N/A   Partly Cloudy
3:15 AM 55.4 °F - 37.4 °F 51% 30.07 in 10.0 mi South 8.1 mph - N/A   Clear
3:35 AM 55.4 °F - 37.4 °F 51% 30.07 in 10.0 mi South 9.2 mph - N/A   Clear
3:55 AM 57.2 °F - 37.4 °F 48% 30.06 in 10.0 mi South 8.1 mph - N/A   Clear
4:15 AM 55.4 °F - 39.2 °F 54% 30.06 in 10.0 mi South 6.9 mph - N/A   Clear
4:35 AM 55.4 °F - 39.2 °F 54% 30.06 in 10.0 mi South 8.1 mph - N/A   Scattered Clouds
4:55 AM 55.4 °F - 39.2 °F 54% 30.06 in 10.0 mi South 6.9 mph - N/A   Overcast
5:15 AM 55.4 °F - 41.0 °F 58% 30.06 in 10.0 mi South 8.1 mph - N/A   Overcast
5:35 AM 55.4 °F - 41.0 °F 58% 30.05 in 10.0 mi South 6.9 mph 12.7 mph N/A   Overcast
5:55 AM 55.4 °F - 42.8 °F 63% 30.06 in 10.0 mi South 6.9 mph - N/A   Overcast
6:15 AM 55.4 °F - 42.8 °F 63% 30.06 in 10.0 mi SSE 8.1 mph - N/A   Overcast
6:35 AM 53.6 °F - 44.6 °F 72% 30.06 in 10.0 mi South 6.9 mph - N/A   Overcast
6:55 AM 55.4 °F - 44.6 °F 67% 30.05 in 10.0 mi South 9.2 mph - N/A   Overcast
7:15 AM 55.4 °F - 46.4 °F 72% 30.05 in 10.0 mi South 9.2 mph - N/A   Overcast
7:55 AM 55.4 °F - 46.4 °F 72% 30.05 in 10.0 mi South 9.2 mph - N/A   Scattered Clouds
8:15 AM 55.4 °F - 48.2 °F 77% 30.06 in 10.0 mi South 8.1 mph - N/A   Clear
8:35 AM 57.2 °F - 48.2 °F 72% 30.06 in 10.0 mi South 11.5 mph - N/A   Clear
8:55 AM 59.0 °F - 50.0 °F 72% 30.06 in 10.0 mi South 10.4 mph 16.1 mph N/A   Clear
9:15 AM 60.8 °F - 50.0 °F 68% 30.06 in 10.0 mi South 13.8 mph 24.2 mph N/A   Clear
9:35 AM 64.4 °F - 51.8 °F 64% 30.07 in 10.0 mi South 15.0 mph 21.9 mph N/A   Clear
9:55 AM 66.2 °F - 51.8 °F 60% 30.07 in 10.0 mi South 17.3 mph 27.6 mph N/A   Clear
10:15 AM 66.2 °F - 51.8 °F 60% 30.07 in 10.0 mi SSW 17.3 mph 27.6 mph N/A   Clear
10:35 AM 68.0 °F - 51.8 °F 56% 30.07 in 10.0 mi SSW 27.6 mph - N/A   Clear
10:55 AM 69.8 °F - 51.8 °F 53% 30.05 in 10.0 mi SSW 25.3 mph 34.5 mph N/A   Clear
11:15 AM 71.6 °F - 51.8 °F 50% 30.05 in 10.0 mi SSW 27.6 mph 34.5 mph N/A   Clear
11:35 AM 73.4 °F - 51.8 °F 47% 30.04 in 10.0 mi South 20.7 mph 31.1 mph N/A   Clear
11:55 AM 75.2 °F - 51.8 °F 44% 30.04 in 10.0 mi SSW 19.6 mph 31.1 mph N/A   Clear
12:15 PM 75.2 °F - 51.8 °F 44% 30.02 in 10.0 mi SSW 24.2 mph 32.2 mph N/A   Clear
12:35 PM 77.0 °F - 53.6 °F 44% 30.02 in 10.0 mi South 18.4 mph 28.8 mph N/A   Clear
12:55 PM 77.0 °F - 53.6 °F 44% 30.00 in 10.0 mi SSW 23.0 mph 29.9 mph N/A   Clear
1:15 PM 77.0 °F - 53.6 °F 44% 29.99 in 10.0 mi South 20.7 mph 31.1 mph N/A   Clear
1:35 PM 78.8 °F - 53.6 °F 42% 29.98 in 10.0 mi South 20.7 mph 29.9 mph N/A   Clear
1:55 PM 80.6 °F 80.5 °F 55.4 °F 42% 29.97 in 10.0 mi SSW 19.6 mph - N/A   Clear
2:15 PM 80.6 °F 80.5 °F 55.4 °F 42% 29.96 in 10.0 mi South 18.4 mph 29.9 mph N/A   Clear
2:35 PM 80.6 °F 80.5 °F 55.4 °F 42% 29.95 in 10.0 mi SSW 20.7 mph 27.6 mph N/A   Clear
2:55 PM 80.6 °F 80.5 °F 55.4 °F 42% 29.93 in 10.0 mi SSW 17.3 mph 31.1 mph N/A   Clear
3:15 PM 80.6 °F 80.3 °F 53.6 °F 39% 29.92 in 10.0 mi SSW 19.6 mph 28.8 mph N/A   Clear
3:35 PM 80.6 °F 80.3 °F 53.6 °F 39% 29.92 in 10.0 mi South 17.3 mph 28.8 mph N/A   Clear
4:15 PM 82.4 °F 81.4 °F 53.6 °F 37% 29.91 in 10.0 mi SSW 16.1 mph 25.3 mph N/A   Clear
4:35 PM 82.4 °F 81.4 °F 53.6 °F 37% 29.91 in 10.0 mi South 16.1 mph 24.2 mph N/A   Clear
4:55 PM 82.4 °F 81.4 °F 53.6 °F 37% 29.91 in 10.0 mi South 16.1 mph 21.9 mph N/A   Clear
5:15 PM 82.4 °F 81.4 °F 53.6 °F 37% 29.90 in 10.0 mi SSW 19.6 mph - N/A   Clear
5:35 PM 80.6 °F 80.3 °F 53.6 °F 39% 29.90 in 10.0 mi SSW 16.1 mph 23.0 mph N/A   Clear
5:55 PM 80.6 °F 80.3 °F 53.6 °F 39% 29.90 in 10.0 mi SSW 15.0 mph 20.7 mph N/A   Clear
6:15 PM 80.6 °F 80.3 °F 53.6 °F 39% 29.90 in 10.0 mi South 11.5 mph 23.0 mph N/A   Clear
6:35 PM 78.8 °F - 53.6 °F 42% 29.90 in 10.0 mi South 13.8 mph 25.3 mph N/A   Clear
6:55 PM 77.0 °F - 53.6 °F 44% 29.91 in 10.0 mi South 10.4 mph - N/A   Clear
7:15 PM 77.0 °F - 53.6 °F 44% 29.91 in 10.0 mi SSE 11.5 mph - N/A   Clear
7:35 PM 75.2 °F - 53.6 °F 47% 29.92 in 10.0 mi South 13.8 mph - N/A   Partly Cloudy
7:55 PM 75.2 °F - 53.6 °F 47% 29.92 in 10.0 mi SSE 9.2 mph - N/A   Partly Cloudy
8:15 PM 73.4 °F - 53.6 °F 50% 29.92 in 10.0 mi South 10.4 mph - N/A   Clear
8:35 PM 73.4 °F - 53.6 °F 50% 29.92 in 10.0 mi SSE 10.4 mph - N/A   Clear
8:55 PM 71.6 °F - 53.6 °F 53% 29.93 in 10.0 mi SSE 8.1 mph - N/A   Clear
9:15 PM 69.8 °F - 53.6 °F 56% 29.93 in 10.0 mi SSE 8.1 mph - N/A   Partly Cloudy
9:35 PM 69.8 °F - 51.8 °F 53% 29.94 in 10.0 mi SSE 5.8 mph - N/A   Partly Cloudy
9:55 PM 68.0 °F - 51.8 °F 56% 29.95 in 10.0 mi SSE 6.9 mph - N/A   Partly Cloudy
10:15 PM 68.0 °F - 50.0 °F 52% 29.96 in 10.0 mi SSE 8.1 mph - N/A   Scattered Clouds
10:35 PM 68.0 °F - 50.0 °F 52% 29.96 in 10.0 mi SSE 9.2 mph - N/A   Scattered Clouds
10:55 PM 68.0 °F - 50.0 °F 52% 29.96 in 10.0 mi SSE 10.4 mph - N/A   Mostly Cloudy
11:15 PM 68.0 °F - 51.8 °F 56% 29.97 in 10.0 mi SSE 11.5 mph - N/A   Scattered Clouds
11:35 PM 68.0 °F - 53.6 °F 60% 29.96 in 10.0 mi SSE 13.8 mph - N/A   Partly Cloudy
11:55 PM 68.0 °F - 55.4 °F 64% 29.96 in 10.0 mi SSE 12.7 mph - N/A   Scattered Clouds